Regional Weather Roundup
Issued by NWS

Home | Current Version | Previous Version | Graphics & Text | Print | Product List | Glossary On
Versions: 1 2 3 4 5 6 7 8 9 10 11 12 13 14 15 16 17 18 19 20 21 22 23 24 25 26 27 28 29 30 31 32 33 34 35 36 37 38 39 40 41 42 43 44 45 46 47 48 49 50
000
ASUS43 KMPX 251310
RWRMN
WEATHER ROUNDUP FOR MINNESOTA
NATIONAL WEATHER SERVICE TWIN CITIES/CHANHASSEN MN
800 AM CDT SUN JUN 25 2017


NOTE: "FAIR" INDICATES FEW OR NO CLOUDS BELOW 12,000 FEET WITH NO
SIGNIFICANT WEATHER AND/OR OBSTRUCTIONS TO VISIBILITY. N/A MEANS
CURRENT SKY AND/OR WEATHER CONDITIONS ARE NOT AVAILABLE.

MNZ060>063-068>070-251400-
   Twin Cities Metro

CITY           SKY/WX    TMP DP  RH WIND       PRES   REMARKS
TWIN CITIES    CLOUDY    56  48  74 NW13      30.12R
ST PAUL        CLOUDY    55  49  80 W12G18    30.12R
CRYSTAL        CLOUDY    54  48  80 W13       30.11R
BLAINE         CLOUDY    55  50  82 W8G18     30.11R
LAKEVILLE      CLOUDY    52  48  87 W8        30.13R
EDEN PRAIRIE   CLOUDY    56  49  77 W10       30.12R
SOUTH ST PAUL  CLOUDY    56  48  76 NW12      30.12R
LAKE ELMO      CLOUDY    55  50  82 NW9       30.12R
$$
MNZ001>005-007-008-013>017-022>024-027-028-251400-
   Northwest Minnesota

CITY           SKY/WX    TMP DP  RH WIND       PRES   REMARKS
BEMIDJI        CLOUDY    49  47  93 NW14      30.16R
HALLOCK        SUNNY     50  46  87 NW7       30.22R
ROSEAU         SUNNY     48  45  87 N7        30.18R
WARROAD        MOSUNNY   48  45  87 NW9       30.17R
THIEF RVR FALL SUNNY     49  44  83 NW10      30.21R
CROOKSTON      SUNNY     48  45  87 N8        30.23R
FOSSTON        SUNNY     50  46  87 NW8       30.20R
DETROIT LAKES  SUNNY     48  43  81 NW14      30.21S
MOORHEAD       SUNNY     52  43  71 NW13      30.24R
PARK RAPIDS    PTSUNNY   53  43  68 NW16      30.16R
MAHNOMEN       FAIR      49  44  83 NW12      30.21R
$$
MNZ006-009>011-018-025>026-251400-
   North Central Minnesota

CITY           SKY/WX    TMP DP  RH WIND       PRES   REMARKS
BAUDETTE       CLOUDY    53  47  79 N5        30.14R
FLAG ISLAND    PTSUNNY   52  48  87 NW9       30.14R
INTL FALLS     HVY RAIN  50  48  93 NW9       30.10R FOG
WASKISH        CLOUDY    50  48  93 NW8       30.15R
BIG FORK       LGT RAIN  50  48  93 NW7       30.11R
LONGVILLE      CLOUDY    50  48  93 NW8       30.12R
GRAND RAPIDS   RAIN      51  49  92 NW18G25   30.10R
CRANE LAKE     LGT RAIN  50  48  93 N6        30.07R
ORR            LGT RAIN  52  48  87 NW7       30.04R
COOK           DRIZZLE   52  50  93 NW3       30.06R
WALKER         CLOUDY    49  46  92 NW10      30.15R
$$
MNZ012-019>021-037-251400-
   Northeast Minnesota

CITY           SKY/WX    TMP DP  RH WIND       PRES   REMARKS
DULUTH         CLOUDY    54  52  93 NW7       30.03R
ELY            LGT RAIN  54  52  94 NW5       30.02S
HIBBING        LGT RAIN  52  51  97 NW9       30.05R FOG
EVELETH        CLOUDY    55  48  78 NW9       30.05R
DULUTH HARBOR  CLOUDY    57  54  88 W8        30.03S
TWO HARBORS    CLOUDY    59  54  82 CALM      30.00R
SILVER BAY     CLOUDY    57  54  88 CALM      29.99S
GRAND MARAIS     N/A     49  46  90 SW3       29.98R
G MARAIS ARPRT PTSUNNY   52  48  87 N8        30.00S
$$
MNZ029>031-032-039>041-046>048-054>057-064-251400-
   West Central Minnesota

CITY           SKY/WX    TMP DP  RH WIND       PRES   REMARKS
FERGUS FALLS   SUNNY     50  43  76 NW14      30.22R
WHEATON        SUNNY     54  45  71 NW12      30.26S
MORRIS         SUNNY     54  45  71 NW16      30.22R
ALEXANDRIA     SUNNY     52  45  77 NW13      30.20R
ELBOW LAKE     FAIR      50  44  79 W14G21    30.22S
WADENA         MOSUNNY   50  46  87 NW15G22   30.17S
GLENWOOD       SUNNY     52  46  82 NW14G23   30.19S
APPLETON       SUNNY     55  43  62 NW15      30.23R
BENSON         SUNNY     54  43  66 N18       30.23R
ORTONVILLE     SUNNY     55  46  71 NW15      30.24S
MADISON        SUNNY     57  46  67 NW10      30.24S
WILLMAR        FAIR      54  45  71 NW21      30.21R
$$
MNZ033>034-036-042>043-049>051-058-059-251400-
   Central Minnesota

CITY           SKY/WX    TMP DP  RH WIND       PRES   REMARKS
ST CLOUD       CLOUDY    51  50  96 NW14G22   30.13R
SAUK CENTRE    CLOUDY    52  45  76 NW15G25   30.17R
PAYNESVILLE    CLOUDY    54  45  73 NW17      30.17R
AITKIN         LGT RAIN  52  50  93 NW9G18    30.08R
PINE RIVER     CLOUDY    52  48  87 NW7       30.16R
BRAINERD       LGT RAIN  51  49  92 NW15G25   30.12R
STAPLES        CLOUDY    52  45  76 NW15G21   30.15S
LONG PRAIRIE   CLOUDY    50  45  81 W13G23    30.17R
LITTLE FALLS   CLOUDY    52  46  82 W10G18    30.14R
LITCHFIELD     CLOUDY    55  48  76 NW14G22   30.16R
BUFFALO        CLOUDY    52  49  90 W9        30.15R
MAPLE LAKE     CLOUDY    54  51  90 NW15G21   30.15R
HUTCHINSON     CLOUDY    54  47  77 W14G23    30.17S
$$
MNZ037-044-045-052-053-251400-
   East Central Minnesota

CITY           SKY/WX    TMP DP  RH WIND       PRES   REMARKS
PRINCETON      CLOUDY    55  52  88 W10       30.11S FOG
MORA           LGT RAIN  54  50  87 NW12      30.10S
CAMBRIDGE      CLOUDY    55  46  71 W10G16    30.08S
RUSH CITY      RAIN      54  50  87 W6        30.08S
MOOSE LAKE     CLOUDY    54  52  94 CALM      30.04S
HINCKLEY       CLOUDY    54  54 100 W7        30.07S FOG
CLOQUET        CLOUDY    55  52  88 NW6       30.04S
MCGREGOR       CLOUDY    54  52  94 NW10      30.07S
$$
MNZ071>073-080-081-089-090-097-098-251400-
   Southwest Minnesota

CITY           SKY/WX    TMP DP  RH WIND       PRES   REMARKS
MONTEVIDEO     SUNNY     55  43  62 N15       30.23R
GRANITE FALLS  SUNNY     55  44  66 W13       30.24R
CANBY          SUNNY     55  46  69 CALM      30.27R
MARSHALL       SUNNY     54  42  64 NW18      30.25R
REDWOOD FALLS  MOSUNNY   54  42  64 NW15G24   30.21R
OLIVIA         SUNNY     54  45  71 NW15G23   30.19R
PIPESTONE      SUNNY     54  46  76 NW9G16    30.27R
WINDOM         SUNNY     54  43  66 W17       30.23S
WORTHINGTON    SUNNY     53  42  66 NW17      30.27R
JACKSON        SUNNY     52  41  66 NW17G23   30.24R
TRACY          SUNNY     55  42  63 NW18G26   30.25R
SLAYTON        SUNNY     52  42  68 NW16      30.26S
$$
MNZ065>067-074>077-082>085-091>093-251400-
   South Central Minnesota

CITY           SKY/WX    TMP DP  RH WIND       PRES   REMARKS
MANKATO        CLOUDY    52  45  77 NW15      30.18R
NEW ULM        MOSUNNY   54  43  66 NW18G26   30.19S
ST JAMES       MOSUNNY   54  45  71 W20G25    30.22R
FAIRMONT       PTSUNNY   53  44  71 NW17G28   30.22R
GLENCOE        CLOUDY    55  50  85 W14       30.15S
FARIBAULT      CLOUDY    54  48  82 W12       30.15R
OWATONNA       CLOUDY    54  48  82 W14       30.16R
WASECA         CLOUDY    52  48  87 W15       30.18R FOG
ALBERT LEA     CLOUDY    52  46  82 NW8G21    30.18R
$$
MNZ078>079-086>088-094>096-251400-
   Southeast Minnesota

CITY           SKY/WX    TMP DP  RH WIND       PRES   REMARKS
ROCHESTER      CLOUDY    53  49  86 W14       30.14R
RED WING       CLOUDY    57  46  67 NW8       30.10R
STANTON        CLOUDY    55  49  79 W9        30.12R
DODGE CENTER   CLOUDY    52  46  82 W14       30.14R
WINONA         CLOUDY    55  50  82 NW9       30.11R
AUSTIN         CLOUDY    54  46  76 W14       30.16R
PRESTON        CLOUDY    52  47  82 W15       30.14R
$$
ABBREVIATIONS USED IN REMARKS
   TC - TEMPERATURES IN CELSIUS
  WCI - WIND CHILL INDEX
   HX - HEAT INDEX
  VSB - VISIBILITY
$$




USA.gov is the U.S. government's official web portal to all federal, state and local government web resources and services.